TimePDT,TemperatureF,Dew PointF,Humidity,Sea Level PressureIn,VisibilityMPH,Wind Direction,Wind SpeedMPH,Gust SpeedMPH,PrecipitationIn,Events,Conditions,WindDirDegrees,DateUTC
12:56 AM,72.0,64.0,76,29.71,10.0,Calm,Calm,-,N/A,,Clear,0,2012-10-11 07:56:00
1:56 AM,71.1,64.0,78,29.70,10.0,West,3.5,-,N/A,,Scattered Clouds,270,2012-10-11 08:56:00
2:56 AM,70.0,64.0,81,29.68,10.0,Calm,Calm,-,N/A,,Mostly Cloudy,0,2012-10-11 09:56:00
3:56 AM,71.1,63.0,75,29.69,10.0,West,4.6,-,N/A,,Overcast,270,2012-10-11 10:56:00
5:56 AM,71.1,63.0,75,29.70,10.0,WSW,3.5,-,N/A,,Clear,250,2012-10-11 12:56:00
6:42 AM,69.8,64.4,83,29.80,10.0,Calm,Calm,-,0.01,Rain-Thunderstorm,Light Thunderstorms and Rain,0,2012-10-11 13:42:00
6:56 AM,68.0,64.0,87,29.73,8.0,SSE,10.4,-,0.03,Rain-Thunderstorm,Thunderstorms and Rain,150,2012-10-11 13:56:00
7:28 AM,66.2,60.8,83,29.80,1.5,WSW,23.0,31.1,0.17,Rain-Thunderstorm,Thunderstorms and Rain,240,2012-10-11 14:28:00
7:41 AM,62.6,57.2,82,29.81,4.0,WSW,10.4,21.9,0.25,Rain-Thunderstorm,Light Thunderstorms and Rain,250,2012-10-11 14:41:00
8:03 AM,64.4,60.8,88,29.83,-9999.0,SW,8.1,-,0.37,Thunderstorm,Thunderstorm,230,2012-10-11 15:03:00
8:29 AM,64.4,60.8,88,29.84,6.0,SSW,13.8,-,0.41,Rain-Thunderstorm,Light Rain,210,2012-10-11 15:29:00
8:57 AM,64.4,60.8,88,29.84,-9999.0,SSW,6.9,-,0.47,Thunderstorm,Thunderstorm,210,2012-10-11 15:57:00
9:13 AM,64.4,60.8,88,29.86,5.0,SE,5.8,-,0.52,Rain-Thunderstorm,Rain,130,2012-10-11 16:13:00
9:37 AM,64.4,60.8,88,29.86,5.0,Calm,Calm,-,0.61,Rain,Light Rain,0,2012-10-11 16:37:00
9:56 AM,64.9,62.1,90,29.80,10.0,Calm,Calm,-,0.61,,Overcast,0,2012-10-11 16:56:00
10:12 AM,64.4,62.6,94,29.86,3.0,NNE,9.2,-,0.03,Rain,Light Rain,20,2012-10-11 17:12:00
11:16 AM,64.4,62.6,94,29.86,-9999.0,NE,6.9,-,N/A,Thunderstorm,Thunderstorm,40,2012-10-11 18:16:00
11:40 AM,66.2,62.6,88,29.85,10.0,NNE,8.1,-,N/A,,Overcast,30,2012-10-11 18:40:00
11:56 AM,66.9,62.1,84,29.78,10.0,North,5.8,-,N/A,,Overcast,10,2012-10-11 18:56:00
12:56 PM,69.1,62.1,78,29.77,10.0,NNE,3.5,-,N/A,,Overcast,20,2012-10-11 19:56:00
1:06 PM,69.8,62.6,78,29.83,10.0,Calm,Calm,-,N/A,,Mostly Cloudy,0,2012-10-11 20:06:00
2:56 PM,71.1,62.1,73,29.74,10.0,ESE,4.6,-,N/A,,Partly Cloudy,110,2012-10-11 21:56:00
4:56 PM,73.9,62.1,66,29.71,10.0,East,4.6,-,N/A,,Clear,90,2012-10-11 23:56:00
6:56 PM,70.0,63.0,78,29.73,10.0,North,6.9,-,N/A,,Scattered Clouds,10,2012-10-12 01:56:00
7:56 PM,69.1,64.0,84,29.75,10.0,North,3.5,-,N/A,,Mostly Cloudy,350,2012-10-12 02:56:00
8:56 PM,68.0,63.0,84,29.77,10.0,West,3.5,-,N/A,,Clear,270,2012-10-12 03:56:00
9:56 PM,68.0,54.0,61,29.78,10.0,SW,3.5,-,N/A,,Clear,230,2012-10-12 04:56:00
10:56 PM,69.1,48.0,47,29.78,10.0,WSW,12.7,-,N/A,,Clear,250,2012-10-12 05:56:00
11:56 PM,66.9,48.0,51,29.79,10.0,SSW,4.6,-,N/A,,Mostly Cloudy,210,2012-10-12 06:56:00